Wind_Speed
8 9 7 8 8 11 11 13 15 17 17 19 22 20 20 20 16 13 15 11 12 10 9 8 8 6 4 1 1 1 3 4 5 5 6 6 5 6 6 6 6 6 6
7 11 10 10 12 13 12 15 16 19 21 22 22 18 16 15 12 10 10 11 14 13 11 9 8 8 9 7 2 4 4 5 6 6 6 6 6 7 7 7 7 7 6
11 11 12 12 12 14 13 16 17 21 20 20 17 16 16 12 11 9 9 11 11 13 13 12 11 10 11 11 9 11 9 6 7 8 9 8 7 7 8 8 8 9 8
11 12 13 16 16 16 17 18 15 16 23 21 16 14 13 10 7 7 8 8 10 12 12 13 14 13 12 12 12 11 13 11 9 9 9 10 10 10 10 10 10 10 10
13 14 13 16 18 16 20 21 20 20 25 19 16 15 13 10 7 6 5 8 7 10 12 12 15 16 15 15 16 15 16 15 13 11 10 12 12 12 13 13 12 12 11
15 15 16 16 18 18 19 17 18 23 22 19 9 12 10 12 9 7 4 6 7 9 11 12 11 16 19 18 17 18 19 18 18 19 17 15 15 16 15 16 15 15 14
15 17 17 18 16 18 18 21 20 21 17 16 9 7 14 11 13 8 3 5 7 10 11 11 13 13 14 18 21 20 20 20 20 20 23 24 20 18 19 18 18 18 17
15 15 13 14 13 13 15 14 14 14 13 12 7 5 3 15 17 10 11 5 6 6 8 12 13 13 17 16 18 22 24 24 24 24 24 25 23 22 22 22 21 21 20
7 6 5 5 5 8 11 11 11 11 10 13 7 5 2 5 9 17 19 9 8 8 8 10 10 12 14 17 19 19 21 23 25 27 30 29 28 29 27 25 25 25 24
4 3 2 2 5 7 11 13 14 13 10 8 12 6 7 9 10 5 11 23 19 9 6 10 12 11 12 16 15 16 19 20 21 23 24 27 30 31 32 32 31 30 29
6 5 2 1 4 7 8 10 12 12 11 9 9 11 8 8 7 10 7 9 12 20 17 11 12 13 12 14 18 13 16 19 20 22 23 24 26 29 33 35 36 37 35
8 5 4 4 6 9 11 11 10 11 12 12 11 10 9 6 6 7 9 11 12 16 21 21 15 15 15 15 16 18 20 19 21 22 24 26 27 28 31 33 36 38 39
11 9 7 8 10 12 15 16 14 12 12 13 12 13 13 11 11 11 9 9 10 7 17 23 23 20 16 18 21 19 20 22 23 24 24 25 27 28 30 32 35 36 37
15 11 9 8 10 12 16 19 21 18 15 14 13 11 13 13 13 12 11 13 12 11 7 18 20 21 25 15 18 21 23 22 23 25 25 27 28 29 30 31 33 35 36
14 13 10 14 18 20 20 19 21 22 19 16 15 13 12 12 11 12 14 9 13 14 13 13 17 19 25 21 20 18 21 23 24 27 29 29 30 31 32 34 36 35 35
20 20 17 23 29 33 33 32 25 24 22 18 15 13 11 9 11 13 15 11 15 16 16 15 16 20 24 25 24 25 22 25 27 27 29 33 33 34 35 35 37 39 39
25 29 31 32 30 32 29 34 29 24 25 21 15 14 11 10 12 14 11 13 17 17 17 18 22 26 29 29 31 32 33 33 30 30 31 30 31 36 37 37 37 38 41
32 35 34 38 40 37 30 34 30 30 26 23 19 16 14 14 14 13 13 18 20 24 25 26 26 25 26 27 31 32 33 34 31 30 30 32 33 34 36 37 38 37 39
38 35 40 43 43 43 43 42 32 34 28 23 19 17 16 15 13 11 14 17 22 27 27 29 28 25 21 26 29 33 34 31 30 29 34 31 33 30 29 33 36 39 38
36 36 38 43 47 47 46 45 41 34 29 25 23 21 19 21 22 21 20 23 25 27 30 29 33 33 33 28 27 32 35 29 35 31 30 34 35 35 32 32 36 36 36
35 36 36 35 40 42 46 44 42 31 32 29 25 25 22 24 26 25 27 29 24 28 31 32 34 35 32 27 32 34 34 33 35 30 38 36 37 37 37 38 36 35 36
35 35 36 34 32 35 41 41 45 33 34 32 29 29 29 28 29 31 31 35 35 32 29 32 32 34 34 35 33 33 36 39 40 37 38 40 38 38 39 39 36 35 37
26 28 24 25 33 36 36 35 40 32 37 36 33 30 33 28 30 33 35 39 40 35 28 31 34 35 36 35 36 37 37 37 37 37 39 41 38 39 36 36 36 38 38
11 14 21 30 32 32 36 32 35 33 35 35 35 33 35 31 35 36 44 45 41 38 33 34 37 36 35 37 39 38 34 34 35 35 36 37 37 38 37 40 41 40 47
17 30 24 35 29 30 33 26 26 31 34 35 36 35 36 36 38 38 42 31 31 34 33 38 39 34 35 36 32 31 32 35 36 36 31 35 39 40 43 45 44 40 53
22 28 29 30 25 26 26 23 22 26 29 32 32 30 30 33 37 35 33 31 37 36 37 36 36 36 35 30 27 30 34 37 39 39 33 39 41 40 45 41 45 55 56
Wind_Direction
247 238 282 294 284 292 291 313 310 309 314 315 303 300 299 299 303 290 275 263 256 250 243 243 251 247 227 262 5 276 242 241 232 223 220 230 238 234 233 232 219 224 230
261 268 280 286 295 299 306 312 317 310 303 300 301 305 306 305 303 290 263 264 252 255 248 240 236 235 227 204 188 330 276 253 255 248 243 242 245 250 240 236 241 236 231
273 275 280 293 296 309 310 312 320 321 315 313 309 309 313 314 308 288 264 251 242 243 248 247 245 242 235 228 234 237 276 267 259 260 263 257 248 250 256 249 243 245 239
269 277 284 303 299 306 306 307 306 283 309 311 312 314 312 308 309 292 254 253 244 240 238 244 240 242 244 241 235 234 244 262 262 261 265 266 266 261 258 258 252 249 249
269 276 284 282 292 298 301 304 297 304 309 307 313 314 314 305 298 289 282 248 238 236 248 245 246 247 243 243 242 241 244 248 259 265 271 276 273 265 260 256 256 252 249
271 278 285 287 294 298 302 289 302 302 299 296 307 308 310 309 314 311 290 272 238 245 233 272 255 248 246 243 243 245 248 249 252 253 266 275 280 272 265 258 253 251 250
271 274 278 289 286 297 289 295 298 299 300 296 323 346 320 337 335 316 315 276 262 255 254 254 259 261 253 248 247 248 248 250 252 250 255 261 263 272 269 265 260 254 248
267 265 272 281 288 278 302 298 300 298 302 304 310 338 347 324 326 299 316 270 266 265 259 257 255 256 264 257 257 252 250 252 251 250 251 255 260 260 265 264 261 259 255
236 241 252 277 305 305 320 335 326 315 309 307 304 290 138 258 318 339 326 306 286 275 270 270 270 260 261 267 269 270 267 263 263 261 257 254 255 256 257 256 260 258 257
178 154 126 325 327 330 336 347 344 336 328 315 313 286 258 256 237 288 336 316 319 300 299 300 295 282 272 273 266 268 269 269 267 265 265 262 258 255 255 256 255 255 257
163 172 181 295 333 342 349 345 345 338 334 320 316 299 293 279 254 243 221 294 296 311 313 299 296 293 289 286 290 277 274 273 273 272 266 263 261 258 255 255 257 259 258
197 218 266 307 327 334 334 334 332 334 331 326 320 309 288 259 252 262 255 273 288 319 316 317 308 291 290 291 286 291 287 279 275 271 270 270 267 264 261 259 257 258 261
222 241 265 301 313 322 322 321 324 322 318 315 315 310 305 291 288 287 284 273 268 270 313 315 317 307 299 286 292 293 284 283 281 274 272 268 266 265 264 263 262 261 261
230 252 263 290 306 314 315 316 315 315 307 307 308 308 303 303 293 300 290 285 291 292 280 302 312 309 307 305 290 293 296 294 287 284 279 275 273 271 269 267 265 264 262
239 244 268 289 298 303 304 304 303 304 304 301 299 302 302 299 303 287 298 307 298 313 306 285 285 295 292 313 310 309 296 290 289 287 284 279 274 273 272 271 270 268 266
250 260 267 286 303 315 308 299 295 299 302 297 294 296 293 292 297 305 309 320 293 307 302 308 304 296 299 301 302 305 306 301 292 286 281 280 281 278 274 272 272 272 269
255 267 278 289 297 294 317 303 278 285 296 295 293 292 287 292 309 305 283 275 294 305 314 320 304 299 300 300 299 304 309 309 299 287 281 280 277 276 278 276 274 272 273
264 273 283 282 284 289 303 319 282 281 285 292 291 291 284 296 312 302 297 312 316 315 310 311 310 294 293 295 292 303 301 297 297 293 289 285 283 278 276 276 274 271 268
271 289 283 292 292 290 289 299 295 276 276 284 284 280 277 290 295 303 302 306 310 314 310 307 310 309 289 301 293 304 303 301 296 293 296 296 296 288 277 271 273 273 271
278 286 294 295 290 294 281 287 297 273 265 271 277 270 274 286 290 290 294 305 304 311 313 306 312 314 314 311 301 303 309 297 294 298 288 295 293 290 290 289 273 271 271
281 287 288 293 289 289 282 283 287 287 257 265 268 265 267 270 280 288 298 301 282 293 295 302 305 309 307 300 302 298 295 296 295 281 298 299 296 295 293 291 288 280 278
271 273 280 283 288 275 276 283 281 286 259 262 260 263 264 269 280 293 297 297 291 288 293 299 305 305 304 300 298 299 297 295 294 295 297 295 295 292 292 290 286 284 286
266 269 281 280 285 281 273 270 282 282 262 261 263 267 270 274 285 285 287 289 299 294 304 303 304 304 301 299 299 297 292 290 292 294 295 295 295 292 293 293 294 294 290
266 265 275 289 279 271 268 267 268 277 263 261 266 267 272 276 279 287 291 293 291 294 306 306 305 303 301 301 300 300 298 295 294 298 304 302 301 301 301 300 299 294 296
290 295 293 289 271 266 267 270 267 266 257 263 267 269 272 278 290 293 298 299 300 302 304 299 302 304 301 300 301 300 301 299 303 305 306 301 306 308 302 299 298 294 306
297 297 289 274 269 267 267 271 268 255 256 266 271 274 280 288 299 299 302 300 299 301 296 298 301 301 301 298 294 299 303 310 311 308 316 306 306 310 307 308 308 310 306
Height
3216 3216 3217 3217 3216 3216 3216 3213 3212 3211 3209 3207 3205 3204 3203 3201 3201 3200 3199 3201 3201 3201 3202 3203 3203 3203 3206 3207 3207 3207 3208 3209 3210 3211 3211 3212 3213 3213 3213 3214 3214 3215 3216
3215 3215 3215 3215 3215 3214 3212 3212 3210 3209 3206 3204 3202 3200 3199 3198 3197 3196 3196 3196 3199 3200 3201 3201 3202 3203 3204 3205 3205 3207 3208 3209 3210 3210 3210 3211 3211 3213 3212 3213 3214 3214 3215
3214 3214 3213 3213 3213 3212 3211 3209 3208 3205 3204 3202 3200 3198 3197 3195 3195 3194 3194 3194 3195 3197 3199 3200 3202 3202 3203 3203 3203 3203 3207 3207 3208 3209 3209 3210 3210 3211 3212 3212 3212 3213 3214
3211 3211 3212 3211 3211 3210 3208 3207 3206 3205 3203 3200 3198 3196 3195 3195 3193 3192 3192 3193 3193 3194 3195 3196 3198 3200 3201 3201 3202 3203 3204 3206 3206 3206 3207 3208 3209 3210 3211 3211 3212 3212 3213
3210 3210 3210 3210 3208 3208 3206 3205 3204 3202 3200 3199 3197 3195 3193 3193 3192 3191 3192 3192 3192 3193 3193 3195 3196 3197 3198 3199 3200 3202 3201 3202 3203 3205 3205 3206 3207 3208 3209 3210 3210 3211 3211
3207 3208 3207 3207 3206 3205 3204 3203 3201 3200 3198 3196 3195 3194 3193 3191 3191 3190 3191 3191 3191 3192 3192 3192 3193 3194 3195 3196 3197 3198 3199 3200 3201 3201 3203 3204 3205 3206 3206 3207 3208 3209 3210
3206 3206 3206 3204 3204 3203 3202 3201 3199 3196 3195 3192 3193 3194 3191 3191 3190 3189 3189 3189 3189 3190 3190 3190 3190 3191 3190 3192 3193 3195 3195 3196 3197 3197 3198 3199 3201 3203 3203 3204 3205 3206 3207
3203 3203 3204 3204 3203 3203 3201 3199 3197 3195 3193 3191 3191 3192 3196 3193 3191 3191 3189 3188 3188 3188 3188 3188 3188 3189 3188 3188 3190 3189 3191 3193 3193 3194 3194 3195 3196 3198 3200 3201 3202 3203 3204
3202 3203 3203 3203 3202 3201 3199 3197 3196 3194 3192 3190 3190 3192 3194 3194 3191 3189 3188 3187 3186 3185 3186 3186 3186 3186 3186 3186 3186 3187 3187 3188 3188 3189 3190 3191 3192 3193 3194 3195 3197 3198 3199
3202 3202 3202 3201 3201 3200 3198 3196 3194 3192 3191 3190 3189 3189 3190 3190 3190 3192 3189 3184 3183 3183 3184 3183 3182 3183 3183 3181 3182 3182 3182 3183 3183 3183 3184 3186 3187 3188 3189 3189 3191 3192 3194
3202 3201 3201 3200 3199 3197 3195 3194 3193 3191 3189 3188 3188 3187 3186 3186 3187 3187 3188 3187 3184 3179 3178 3180 3179 3179 3180 3180 3177 3179 3178 3178 3178 3179 3178 3178 3179 3180 3182 3183 3184 3185 3187
3199 3199 3199 3198 3198 3196 3194 3192 3190 3189 3188 3187 3186 3186 3185 3185 3186 3185 3183 3183 3182 3181 3177 3175 3175 3175 3174 3174 3174 3173 3172 3172 3173 3173 3172 3173 3173 3174 3174 3175 3176 3177 3179
3197 3196 3196 3195 3194 3194 3193 3190 3188 3186 3185 3185 3184 3183 3181 3180 3180 3180 3179 3179 3178 3178 3178 3175 3173 3169 3169 3169 3168 3168 3167 3167 3166 3165 3166 3166 3165 3165 3166 3167 3167 3169 3170
3193 3193 3192 3191 3190 3190 3189 3188 3187 3185 3184 3182 3182 3181 3179 3178 3177 3177 3175 3174 3175 3175 3176 3173 3170 3168 3164 3164 3163 3162 3161 3161 3161 3159 3158 3158 3158 3158 3158 3158 3158 3159 3161
3189 3188 3189 3189 3188 3187 3185 3183 3183 3183 3181 3180 3178 3178 3176 3176 3174 3175 3172 3171 3170 3171 3171 3171 3170 3167 3163 3159 3157 3157 3157 3156 3156 3154 3151 3150 3149 3149 3149 3149 3150 3150 3151
3185 3186 3185 3186 3186 3185 3183 3181 3178 3178 3178 3175 3174 3173 3173 3172 3172 3171 3169 3169 3168 3166 3165 3164 3163 3161 3157 3156 3152 3150 3150 3148 3147 3148 3146 3144 3142 3140 3140 3141 3140 3141 3141
3181 3181 3182 3181 3179 3179 3178 3175 3172 3171 3171 3171 3170 3170 3170 3170 3169 3168 3167 3166 3164 3162 3162 3162 3159 3155 3152 3150 3148 3145 3141 3139 3139 3138 3137 3137 3135 3132 3131 3131 3131 3131 3131
3177 3178 3177 3175 3173 3171 3170 3169 3169 3168 3167 3167 3166 3166 3166 3165 3163 3163 3163 3161 3160 3159 3157 3156 3156 3152 3149 3146 3142 3139 3138 3134 3130 3129 3127 3126 3126 3125 3123 3121 3121 3121 3121
3171 3172 3171 3169 3168 3167 3164 3164 3164 3163 3162 3161 3161 3161 3161 3160 3159 3158 3157 3157 3156 3153 3150 3147 3145 3143 3141 3141 3136 3132 3128 3125 3124 3122 3120 3116 3115 3114 3113 3112 3111 3110 3110
3166 3166 3165 3163 3164 3161 3159 3157 3157 3155 3156 3155 3155 3155 3155 3155 3154 3153 3152 3151 3149 3147 3145 3141 3137 3134 3133 3131 3128 3125 3122 3119 3116 3114 3112 3110 3107 3103 3102 3101 3100 3099 3098
3160 3161 3159 3158 3158 3155 3153 3151 3151 3148 3148 3149 3149 3149 3149 3148 3148 3148 3146 3146 3144 3141 3140 3137 3133 3129 3126 3125 3121 3119 3114 3111 3108 3107 3103 3100 3097 3096 3092 3089 3087 3085 3084
3153 3152 3151 3152 3151 3148 3145 3146 3143 3141 3142 3142 3141 3142 3143 3144 3143 3143 3142 3139 3137 3132 3131 3129 3126 3122 3119 3116 3113 3110 3105 3101 3098 3098 3093 3089 3088 3083 3081 3079 3076 3074 3073
3143 3142 3144 3143 3139 3139 3137 3138 3135 3134 3134 3134 3135 3136 3137 3138 3137 3135 3133 3131 3127 3125 3119 3119 3116 3114 3110 3108 3103 3100 3096 3092 3089 3087 3083 3078 3077 3071 3070 3067 3064 3062 3059
3135 3135 3133 3131 3128 3128 3130 3129 3128 3126 3126 3127 3128 3130 3130 3130 3129 3127 3125 3122 3119 3118 3114 3110 3107 3106 3102 3097 3093 3089 3085 3082 3079 3077 3072 3065 3063 3059 3057 3054 3051 3047 3042
3127 3129 3123 3123 3120 3119 3121 3120 3120 3119 3119 3120 3122 3122 3123 3123 3121 3120 3115 3112 3111 3108 3105 3101 3098 3096 3093 3089 3084 3079 3077 3073 3068 3064 3064 3056 3050 3047 3043 3039 3036 3033 3025
3118 3117 3114 3114 3113 3113 3113 3112 3112 3112 3113 3114 3114 3114 3114 3115 3114 3111 3108 3105 3102 3100 3096 3094 3089 3085 3083 3081 3078 3073 3068 3062 3058 3054 3054 3046 3041 3037 3026 3027 3021 3014 3003